Time,TemperatureF,DewpointF,PressureIn,WindDirection,WindDirectionDegrees,WindSpeedMPH,WindSpeedGustMPH,Humidity,HourlyPrecipIn,Conditions,Clouds,dailyrainin,SoftwareType,DateUTC
2013-02-18 00:00:00,41.9,26.5,30.34,WNW,296,0.0,2.0,54,0.00,,SKC,0.00,VWS V14.01,2013-02-18 05:00:00,
2013-02-18 00:05:00,41.6,26.2,30.34,WNW,296,0.0,1.0,54,0.00,,SKC,0.00,VWS V14.01,2013-02-18 05:05:00,
2013-02-18 00:10:00,41.3,25.9,30.34,WNW,296,0.0,1.0,54,0.00,,SKC,0.00,VWS V14.01,2013-02-18 05:10:00,
2013-02-18 00:15:00,41.1,26.6,30.35,WNW,296,0.0,1.0,56,0.00,,SKC,0.00,VWS V14.01,2013-02-18 05:15:00,
2013-02-18 00:20:00,40.9,27.3,30.35,WNW,296,1.0,2.0,58,0.00,,SKC,0.00,VWS V14.01,2013-02-18 05:20:00,
2013-02-18 00:25:00,40.8,26.8,30.35,WNW,296,0.0,2.0,57,0.00,,SKC,0.00,VWS V14.01,2013-02-18 05:25:00,
2013-02-18 00:30:00,40.8,26.3,30.35,WNW,296,2.0,2.0,56,0.00,,SKC,0.00,VWS V14.01,2013-02-18 05:30:00,
2013-02-18 00:35:00,41.0,26.1,30.35,WNW,296,0.0,3.0,55,0.00,,SKC,0.00,VWS V14.01,2013-02-18 05:35:00,
2013-02-18 00:40:00,41.0,27.0,30.35,WNW,296,0.0,1.0,57,0.00,,SKC,0.00,VWS V14.01,2013-02-18 05:40:00,
2013-02-18 00:45:00,40.9,28.9,30.35,WNW,296,2.0,3.0,62,0.00,,SKC,0.00,VWS V14.01,2013-02-18 05:45:00,
2013-02-18 00:50:00,41.0,29.4,30.35,WNW,296,1.0,2.0,63,0.00,,SKC,0.00,VWS V14.01,2013-02-18 05:50:00,
2013-02-18 00:55:00,40.9,29.7,30.35,WNW,296,0.0,0.0,64,0.00,,SKC,0.00,VWS V14.01,2013-02-18 05:55:00,
2013-02-18 01:00:00,40.7,29.1,30.35,WNW,296,1.0,2.0,63,0.00,,SKC,0.00,VWS V14.01,2013-02-18 06:00:00,
2013-02-18 01:05:00,40.5,29.3,30.35,WNW,296,0.0,1.0,64,0.00,,SKC,0.00,VWS V14.01,2013-02-18 06:05:00,
2013-02-18 01:10:00,40.3,28.7,30.35,WNW,296,0.0,1.0,63,0.00,,SKC,0.00,VWS V14.01,2013-02-18 06:10:00,
2013-02-18 01:15:00,40.1,28.1,30.35,WNW,296,0.0,2.0,62,0.00,,SKC,0.00,VWS V14.01,2013-02-18 06:15:00,
2013-02-18 01:20:00,40.1,28.5,30.35,WNW,296,0.0,3.0,63,0.00,,SKC,0.00,VWS V14.01,2013-02-18 06:20:00,
2013-02-18 01:25:00,40.0,28.8,30.35,WNW,296,1.0,1.0,64,0.00,,SKC,0.00,VWS V14.01,2013-02-18 06:25:00,
2013-02-18 01:30:00,39.9,30.6,30.35,WNW,296,1.0,3.0,69,0.00,,SKC,0.00,VWS V14.01,2013-02-18 06:30:00,
2013-02-18 01:35:00,39.9,30.9,30.35,WNW,296,2.0,3.0,70,0.00,,SKC,0.00,VWS V14.01,2013-02-18 06:35:00,
2013-02-18 01:40:00,39.7,30.7,30.35,North,5,4.0,4.0,70,0.00,,SKC,0.00,VWS V14.01,2013-02-18 06:40:00,
2013-02-18 01:45:00,39.7,31.1,30.35,North,9,2.0,4.0,71,0.00,,SKC,0.00,VWS V14.01,2013-02-18 06:45:00,
2013-02-18 01:50:00,39.5,31.2,30.35,North,9,3.0,5.0,72,0.00,,SKC,0.00,VWS V14.01,2013-02-18 06:50:00,
2013-02-18 01:55:00,39.3,30.7,30.35,NNE,20,3.0,4.0,71,0.00,,SKC,0.00,VWS V14.01,2013-02-18 06:55:00,
2013-02-18 02:00:00,39.1,30.5,30.35,NNE,19,3.0,5.0,71,0.00,,SKC,0.00,VWS V14.01,2013-02-18 07:00:00,
2013-02-18 02:05:00,39.1,30.9,30.35,NNE,19,3.0,5.0,72,0.00,,SKC,0.00,VWS V14.01,2013-02-18 07:05:00,
2013-02-18 02:10:00,39.1,30.2,30.35,NNE,19,2.0,5.0,70,0.00,,SKC,0.00,VWS V14.01,2013-02-18 07:10:00,
2013-02-18 02:15:00,39.2,29.2,30.34,NNE,18,3.0,5.0,67,0.00,,SKC,0.00,VWS V14.01,2013-02-18 07:15:00,
2013-02-18 02:20:00,39.4,29.0,30.34,NNE,17,2.0,2.0,66,0.00,,SKC,0.00,VWS V14.01,2013-02-18 07:20:00,
2013-02-18 02:25:00,39.3,28.9,30.34,North,11,3.0,6.0,66,0.00,,SKC,0.00,VWS V14.01,2013-02-18 07:25:00,
2013-02-18 02:30:00,39.4,29.4,30.34,NNE,12,3.0,3.0,67,0.00,,SKC,0.00,VWS V14.01,2013-02-18 07:30:00,
2013-02-18 02:35:00,39.5,29.8,30.34,North,11,3.0,6.0,68,0.00,,SKC,0.00,VWS V14.01,2013-02-18 07:35:00,
2013-02-18 02:40:00,39.5,29.8,30.34,NNE,17,3.0,5.0,68,0.00,,SKC,0.00,VWS V14.01,2013-02-18 07:40:00,
2013-02-18 02:45:00,39.4,29.7,30.33,NNE,17,2.0,2.0,68,0.00,,SKC,0.00,VWS V14.01,2013-02-18 07:45:00,
2013-02-18 02:50:00,39.2,29.5,30.33,NNE,17,3.0,4.0,68,0.00,,SKC,0.00,VWS V14.01,2013-02-18 07:50:00,
2013-02-18 02:55:00,39.0,29.7,30.33,NNE,17,3.0,4.0,69,0.00,,SKC,0.00,VWS V14.01,2013-02-18 07:55:00,
2013-02-18 03:00:00,39.0,30.1,30.33,NNE,17,3.0,4.0,70,0.00,,SKC,0.00,VWS V14.01,2013-02-18 08:00:00,
2013-02-18 03:05:00,39.1,30.2,30.33,NNE,17,3.0,4.0,70,0.00,,SKC,0.00,VWS V14.01,2013-02-18 08:05:00,
2013-02-18 03:10:00,39.0,30.4,30.33,NNE,20,3.0,6.0,71,0.00,,SKC,0.00,VWS V14.01,2013-02-18 08:10:00,
2013-02-18 03:15:00,39.1,30.2,30.33,North,10,4.0,6.0,70,0.00,,SKC,0.00,VWS V14.01,2013-02-18 08:15:00,
2013-02-18 03:20:00,39.0,30.1,30.33,NNE,17,6.0,7.0,70,0.00,,SKC,0.00,VWS V14.01,2013-02-18 08:20:00,
2013-02-18 03:25:00,38.9,30.0,30.33,NNE,24,5.0,7.0,70,0.00,,SKC,0.00,VWS V14.01,2013-02-18 08:25:00,
2013-02-18 03:30:00,38.9,30.0,30.33,NNE,31,6.0,7.0,70,0.00,,SKC,0.00,VWS V14.01,2013-02-18 08:30:00,
2013-02-18 03:35:00,38.9,30.0,30.33,NNE,29,5.0,7.0,70,0.00,,SKC,0.00,VWS V14.01,2013-02-18 08:35:00,
2013-02-18 03:40:00,38.9,30.0,30.33,NNE,24,5.0,6.0,70,0.00,,SKC,0.00,VWS V14.01,2013-02-18 08:40:00,
2013-02-18 03:45:00,38.8,29.2,30.33,NNE,17,5.0,7.0,68,0.00,,SKC,0.00,VWS V14.01,2013-02-18 08:45:00,
2013-02-18 03:50:00,38.8,29.5,30.33,NNE,29,4.0,6.0,69,0.00,,SKC,0.00,VWS V14.01,2013-02-18 08:50:00,
2013-02-18 03:55:00,38.7,29.4,30.33,NNE,26,3.0,6.0,69,0.00,,SKC,0.00,VWS V14.01,2013-02-18 08:55:00,
2013-02-18 04:00:00,38.7,29.8,30.33,NE,36,2.0,6.0,70,0.00,,SKC,0.00,VWS V14.01,2013-02-18 09:00:00,
2013-02-18 04:05:00,38.5,29.6,30.33,NNE,24,5.0,7.0,70,0.00,,SKC,0.00,VWS V14.01,2013-02-18 09:05:00,
2013-02-18 04:10:00,38.4,29.8,30.33,NNE,27,4.0,5.0,71,0.00,,SKC,0.00,VWS V14.01,2013-02-18 09:10:00,
2013-02-18 04:15:00,38.3,30.1,30.33,NNE,30,5.0,7.0,72,0.00,,SKC,0.00,VWS V14.01,2013-02-18 09:15:00,
2013-02-18 04:20:00,38.3,30.1,30.33,NNE,33,4.0,6.0,72,0.00,,SKC,0.00,VWS V14.01,2013-02-18 09:20:00,
2013-02-18 04:25:00,38.3,30.4,30.33,NNE,26,4.0,5.0,73,0.00,,SKC,0.00,VWS V14.01,2013-02-18 09:25:00,
2013-02-18 04:30:00,38.3,30.8,30.33,NNE,30,4.0,6.0,74,0.00,,SKC,0.00,VWS V14.01,2013-02-18 09:30:00,
2013-02-18 04:35:00,38.3,31.1,30.33,NNE,32,2.0,7.0,75,0.00,,SKC,0.00,VWS V14.01,2013-02-18 09:35:00,
2013-02-18 04:40:00,38.4,31.5,30.33,NNE,26,2.0,7.0,76,0.00,,SKC,0.00,VWS V14.01,2013-02-18 09:40:00,
2013-02-18 04:45:00,38.5,31.6,30.33,NE,54,2.0,6.0,76,0.00,,SKC,0.00,VWS V14.01,2013-02-18 09:45:00,
2013-02-18 04:50:00,38.6,31.4,30.33,NE,38,5.0,6.0,75,0.00,,SKC,0.00,VWS V14.01,2013-02-18 09:50:00,
2013-02-18 04:55:00,38.7,31.1,30.33,NE,38,3.0,5.0,74,0.00,,SKC,0.00,VWS V14.01,2013-02-18 09:55:00,
2013-02-18 05:00:00,38.7,31.1,30.33,NE,37,3.0,5.0,74,0.00,,SKC,0.00,VWS V14.01,2013-02-18 10:00:00,
2013-02-18 05:05:00,38.7,31.1,30.33,NE,39,5.0,5.0,74,0.00,,SKC,0.00,VWS V14.01,2013-02-18 10:05:00,
2013-02-18 05:10:00,38.7,30.8,30.33,NE,48,1.0,6.0,73,0.00,,SKC,0.00,VWS V14.01,2013-02-18 10:10:00,
2013-02-18 05:15:00,38.6,30.7,30.33,NE,48,3.0,4.0,73,0.00,,SKC,0.00,VWS V14.01,2013-02-18 10:15:00,
2013-02-18 05:20:00,38.6,31.0,30.33,NE,44,1.0,5.0,74,0.00,,SKC,0.00,VWS V14.01,2013-02-18 10:20:00,
2013-02-18 05:25:00,38.5,31.0,30.33,NE,48,3.0,4.0,74,0.00,,SKC,0.00,VWS V14.01,2013-02-18 10:25:00,
2013-02-18 05:30:00,38.5,31.0,30.33,NE,44,3.0,5.0,74,0.00,,SKC,0.00,VWS V14.01,2013-02-18 10:30:00,
2013-02-18 05:35:00,38.6,31.0,30.33,NE,45,3.0,4.0,74,0.00,,SKC,0.00,VWS V14.01,2013-02-18 10:35:00,
2013-02-18 05:40:00,38.6,31.0,30.33,NE,41,1.0,4.0,74,0.00,,SKC,0.00,VWS V14.01,2013-02-18 10:40:00,
2013-02-18 05:45:00,38.7,31.1,30.33,NE,41,2.0,4.0,74,0.00,,SKC,0.00,VWS V14.01,2013-02-18 10:45:00,
2013-02-18 05:50:00,38.8,31.6,30.33,NE,41,1.0,4.0,75,0.00,,SKC,0.00,VWS V14.01,2013-02-18 10:50:00,
2013-02-18 05:55:00,38.8,31.9,30.33,NE,41,2.0,4.0,76,0.00,,SKC,0.00,VWS V14.01,2013-02-18 10:55:00,
2013-02-18 06:00:00,39.0,32.7,30.33,NE,41,3.0,4.0,78,0.00,,SKC,0.00,VWS V14.01,2013-02-18 11:00:00,
2013-02-18 06:05:00,39.1,32.5,30.33,NE,41,3.0,4.0,77,0.00,,SKC,0.00,VWS V14.01,2013-02-18 11:05:00,
2013-02-18 06:10:00,39.0,32.1,30.33,NE,41,3.0,4.0,76,0.00,,SKC,0.00,VWS V14.01,2013-02-18 11:10:00,
2013-02-18 06:15:00,38.9,32.0,30.33,NE,40,2.0,5.0,76,0.00,,SKC,0.00,VWS V14.01,2013-02-18 11:15:00,
2013-02-18 06:20:00,38.9,31.7,30.33,NE,40,2.0,5.0,75,0.00,,SKC,0.00,VWS V14.01,2013-02-18 11:20:00,
2013-02-18 06:25:00,39.0,31.1,30.33,NNE,30,3.0,6.0,73,0.00,,SKC,0.00,VWS V14.01,2013-02-18 11:25:00,
2013-02-18 06:30:00,38.9,31.0,30.34,NNE,22,6.0,6.0,73,0.00,,SKC,0.00,VWS V14.01,2013-02-18 11:30:00,
2013-02-18 06:35:00,38.8,30.9,30.34,NE,34,3.0,6.0,73,0.00,,SKC,0.00,VWS V14.01,2013-02-18 11:35:00,
2013-02-18 06:40:00,38.6,31.0,30.34,NNE,33,3.0,5.0,74,0.00,,SKC,0.00,VWS V14.01,2013-02-18 11:40:00,
2013-02-18 06:45:00,38.4,31.2,30.34,NNE,25,5.0,6.0,75,0.00,,SKC,0.00,VWS V14.01,2013-02-18 11:45:00,
2013-02-18 06:50:00,38.1,30.9,30.34,NNE,26,8.0,8.0,75,0.00,,SKC,0.00,VWS V14.01,2013-02-18 11:50:00,
2013-02-18 06:55:00,38.0,30.8,30.34,NNE,24,6.0,7.0,75,0.00,,SKC,0.00,VWS V14.01,2013-02-18 11:55:00,
2013-02-18 07:00:00,38.0,31.1,30.34,NNE,30,5.0,7.0,76,0.00,,SKC,0.00,VWS V14.01,2013-02-18 12:00:00,
2013-02-18 07:05:00,37.9,31.4,30.34,NNE,17,3.0,6.0,77,0.00,,SKC,0.00,VWS V14.01,2013-02-18 12:05:00,
2013-02-18 07:10:00,37.8,31.2,30.34,NE,34,5.0,7.0,77,0.00,,SKC,0.00,VWS V14.01,2013-02-18 12:10:00,
2013-02-18 07:15:00,37.8,31.2,30.34,NNE,31,4.0,7.0,77,0.00,,SKC,0.00,VWS V14.01,2013-02-18 12:15:00,
2013-02-18 07:20:00,37.9,31.4,30.34,NNE,32,2.0,5.0,77,0.00,,SKC,0.00,VWS V14.01,2013-02-18 12:20:00,
2013-02-18 07:25:00,38.0,31.1,30.35,NE,36,6.0,7.0,76,0.00,,SKC,0.00,VWS V14.01,2013-02-18 12:25:00,
2013-02-18 07:30:00,38.3,31.1,30.34,NNE,24,7.0,8.0,75,0.00,,SKC,0.00,VWS V14.01,2013-02-18 12:30:00,
2013-02-18 07:35:00,38.6,31.0,30.35,NE,36,5.0,8.0,74,0.00,,SKC,0.00,VWS V14.01,2013-02-18 12:35:00,
2013-02-18 07:40:00,38.9,30.7,30.35,NE,39,6.0,6.0,72,0.00,,SKC,0.00,VWS V14.01,2013-02-18 12:40:00,
2013-02-18 07:45:00,39.2,30.6,30.35,NNE,22,4.0,7.0,71,0.00,,SKC,0.00,VWS V14.01,2013-02-18 12:45:00,
2013-02-18 07:50:00,39.7,30.0,30.35,NE,38,4.0,8.0,68,0.00,,SKC,0.00,VWS V14.01,2013-02-18 12:50:00,
2013-02-18 07:55:00,40.2,29.8,30.35,NE,49,5.0,7.0,66,0.00,,SKC,0.00,VWS V14.01,2013-02-18 12:55:00,
2013-02-18 08:00:00,40.6,29.8,30.35,NE,44,2.0,6.0,65,0.00,,SKC,0.00,VWS V14.01,2013-02-18 13:00:00,
2013-02-18 08:05:00,40.9,29.3,30.35,NNE,26,4.0,9.0,63,0.00,,SKC,0.00,VWS V14.01,2013-02-18 13:05:00,
2013-02-18 08:10:00,41.2,28.8,30.35,NE,36,6.0,8.0,61,0.00,,SKC,0.00,VWS V14.01,2013-02-18 13:10:00,
2013-02-18 08:15:00,41.5,28.7,30.35,NNE,24,4.0,9.0,60,0.00,,SKC,0.00,VWS V14.01,2013-02-18 13:15:00,
2013-02-18 08:20:00,41.9,28.2,30.35,NNE,19,4.0,9.0,58,0.00,,SKC,0.00,VWS V14.01,2013-02-18 13:20:00,
2013-02-18 08:25:00,42.4,28.7,30.35,NNE,17,6.0,8.0,58,0.00,,SKC,0.00,VWS V14.01,2013-02-18 13:25:00,
2013-02-18 08:30:00,42.7,28.1,30.35,NNE,22,5.0,9.0,56,0.00,,SKC,0.00,VWS V14.01,2013-02-18 13:30:00,
2013-02-18 08:35:00,43.0,28.8,30.35,NNE,20,4.0,9.0,57,0.00,,SKC,0.00,VWS V14.01,2013-02-18 13:35:00,
2013-02-18 08:40:00,43.5,28.4,30.35,NNE,24,6.0,8.0,55,0.00,,SKC,0.00,VWS V14.01,2013-02-18 13:40:00,
2013-02-18 08:45:00,44.0,28.4,30.35,North,11,9.0,9.0,54,0.00,,SKC,0.00,VWS V14.01,2013-02-18 13:45:00,
2013-02-18 08:50:00,44.4,28.4,30.35,NE,35,4.0,10.0,53,0.00,,SKC,0.00,VWS V14.01,2013-02-18 13:50:00,
2013-02-18 10:10:00,53.4,31.5,30.36,ENE,76,9.0,9.0,43,0.00,,SKC,0.00,VWS V14.01,2013-02-18 15:10:00,
2013-02-18 10:15:00,53.6,31.7,30.36,NE,55,4.0,4.0,43,0.00,,SKC,0.00,VWS V14.01,2013-02-18 15:15:00,
2013-02-18 10:20:00,54.1,32.7,30.35,East,85,8.0,14.0,44,0.00,,SKC,0.00,VWS V14.01,2013-02-18 15:20:00,
2013-02-18 10:25:00,54.8,33.3,30.36,ESE,108,8.0,8.0,44,0.00,,SKC,0.00,VWS V14.01,2013-02-18 15:25:00,
2013-02-18 10:30:00,55.0,33.5,30.36,East,82,10.0,13.0,44,0.00,,SKC,0.00,VWS V14.01,2013-02-18 15:30:00,
2013-02-18 10:35:00,55.0,33.5,30.36,East,83,9.0,9.0,44,0.00,,SKC,0.00,VWS V14.01,2013-02-18 15:35:00,
2013-02-18 10:40:00,55.3,34.3,30.36,ENE,69,12.0,15.0,45,0.00,,SKC,0.00,VWS V14.01,2013-02-18 15:40:00,
2013-02-18 10:45:00,55.1,34.2,30.36,NE,48,8.0,16.0,45,0.00,,SKC,0.00,VWS V14.01,2013-02-18 15:45:00,
2013-02-18 10:50:00,55.4,34.4,30.36,ENE,58,9.0,14.0,45,0.00,,SKC,0.00,VWS V14.01,2013-02-18 15:50:00,
2013-02-18 10:55:00,55.8,35.3,30.36,East,83,6.0,14.0,46,0.00,,SKC,0.00,VWS V14.01,2013-02-18 15:55:00,
2013-02-18 11:00:00,56.7,36.2,30.36,NNE,28,6.0,11.0,46,0.00,,SKC,0.00,VWS V14.01,2013-02-18 16:00:00,
2013-02-18 11:05:00,57.0,36.4,30.36,ENE,66,8.0,13.0,46,0.00,,SKC,0.00,VWS V14.01,2013-02-18 16:05:00,
2013-02-18 11:10:00,57.3,37.3,30.36,East,81,9.0,15.0,47,0.00,,SKC,0.00,VWS V14.01,2013-02-18 16:10:00,
2013-02-18 11:15:00,57.6,37.0,30.36,East,97,5.0,11.0,46,0.00,,SKC,0.00,VWS V14.01,2013-02-18 16:15:00,
2013-02-18 11:20:00,57.7,37.6,30.36,ENE,78,5.0,13.0,47,0.00,,SKC,0.00,VWS V14.01,2013-02-18 16:20:00,
2013-02-18 11:25:00,58.1,38.5,30.36,East,94,8.0,12.0,48,0.00,,SKC,0.00,VWS V14.01,2013-02-18 16:25:00,
2013-02-18 11:30:00,58.2,38.6,30.36,East,81,6.0,16.0,48,0.00,,SKC,0.00,VWS V14.01,2013-02-18 16:30:00,
2013-02-18 11:35:00,58.4,38.8,30.35,ENE,59,11.0,14.0,48,0.00,,SKC,0.00,VWS V14.01,2013-02-18 16:35:00,
2013-02-18 11:40:00,58.4,39.3,30.35,East,87,11.0,15.0,49,0.00,,SKC,0.00,VWS V14.01,2013-02-18 16:40:00,
2013-02-18 11:45:00,58.4,38.8,30.35,ESE,117,7.0,15.0,48,0.00,,SKC,0.00,VWS V14.01,2013-02-18 16:45:00,
2013-02-18 11:50:00,59.0,39.9,30.34,ESE,117,4.0,11.0,49,0.00,,SKC,0.00,VWS V14.01,2013-02-18 16:50:00,
2013-02-18 11:55:00,59.3,39.1,30.35,ENE,57,10.0,13.0,47,0.00,,SKC,0.00,VWS V14.01,2013-02-18 16:55:00,
2013-02-18 12:00:00,59.0,39.9,30.34,East,86,6.0,13.0,49,0.00,,SKC,0.00,VWS V14.01,2013-02-18 17:00:00,
2013-02-18 12:05:00,59.5,39.3,30.34,ESE,105,10.0,13.0,47,0.00,,SKC,0.00,VWS V14.01,2013-02-18 17:05:00,
2013-02-18 12:10:00,59.4,39.7,30.34,East,81,8.0,14.0,48,0.00,,SKC,0.00,VWS V14.01,2013-02-18 17:10:00,
2013-02-18 12:15:00,59.7,40.0,30.33,East,82,10.0,15.0,48,0.00,,SKC,0.00,VWS V14.01,2013-02-18 17:15:00,
2013-02-18 12:20:00,59.8,40.1,30.33,ESE,120,8.0,16.0,48,0.00,,SKC,0.00,VWS V14.01,2013-02-18 17:20:00,
2013-02-18 12:25:00,60.0,40.3,30.33,ENE,67,9.0,9.0,48,0.00,,SKC,0.00,VWS V14.01,2013-02-18 17:25:00,
2013-02-18 12:30:00,60.2,40.5,30.33,NE,44,4.0,14.0,48,0.00,,SKC,0.00,VWS V14.01,2013-02-18 17:30:00,
2013-02-18 12:35:00,60.2,40.5,30.33,ENE,78,9.0,14.0,48,0.00,,SKC,0.00,VWS V14.01,2013-02-18 17:35:00,
2013-02-18 12:40:00,60.9,41.1,30.32,ENE,69,9.0,18.0,48,0.00,,SKC,0.00,VWS V14.01,2013-02-18 17:40:00,
2013-02-18 12:45:00,61.0,41.2,30.32,East,88,11.0,11.0,48,0.00,,SKC,0.00,VWS V14.01,2013-02-18 17:45:00,
2013-02-18 12:50:00,61.4,41.0,30.31,ENE,76,7.0,17.0,47,0.00,,SKC,0.00,VWS V14.01,2013-02-18 17:50:00,
2013-02-18 12:55:00,61.7,41.8,30.31,East,82,10.0,16.0,48,0.00,,SKC,0.00,VWS V14.01,2013-02-18 17:55:00,
2013-02-18 13:00:00,62.3,41.8,30.30,ESE,120,11.0,13.0,47,0.00,,SKC,0.00,VWS V14.01,2013-02-18 18:00:00,
2013-02-18 13:05:00,62.5,42.0,30.30,ESE,122,4.0,15.0,47,0.00,,SKC,0.00,VWS V14.01,2013-02-18 18:05:00,
2013-02-18 13:10:00,62.5,42.0,30.29,ESE,105,8.0,17.0,47,0.00,,SKC,0.00,VWS V14.01,2013-02-18 18:10:00,
2013-02-18 13:15:00,62.9,42.4,30.29,ESE,116,9.0,19.0,47,0.00,,SKC,0.00,VWS V14.01,2013-02-18 18:15:00,
2013-02-18 13:20:00,63.2,43.2,30.28,East,100,7.0,12.0,48,0.00,,SKC,0.00,VWS V14.01,2013-02-18 18:20:00,
2013-02-18 13:25:00,63.8,43.2,30.28,East,80,9.0,15.0,47,0.00,,SKC,0.00,VWS V14.01,2013-02-18 18:25:00,
2013-02-18 13:30:00,63.3,42.8,30.28,East,79,16.0,18.0,47,0.00,,SKC,0.00,VWS V14.01,2013-02-18 18:30:00,
2013-02-18 13:35:00,63.6,42.5,30.28,ESE,112,9.0,18.0,46,0.00,,SKC,0.00,VWS V14.01,2013-02-18 18:35:00,
2013-02-18 13:40:00,63.9,43.3,30.28,East,86,7.0,14.0,47,0.00,,SKC,0.00,VWS V14.01,2013-02-18 18:40:00,
2013-02-18 13:45:00,64.7,44.0,30.27,SE,128,10.0,19.0,47,0.00,,SKC,0.00,VWS V14.01,2013-02-18 18:45:00,
2013-02-18 13:50:00,64.3,43.1,30.27,ESE,107,3.0,17.0,46,0.00,,SKC,0.00,VWS V14.01,2013-02-18 18:50:00,
2013-02-18 13:55:00,64.9,44.2,30.27,East,97,9.0,15.0,47,0.00,,SKC,0.00,VWS V14.01,2013-02-18 18:55:00,
2013-02-18 14:00:00,64.5,43.8,30.27,ENE,63,10.0,16.0,47,0.00,,SKC,0.00,VWS V14.01,2013-02-18 19:00:00,
2013-02-18 14:05:00,64.4,43.2,30.27,ESE,105,5.0,16.0,46,0.00,,SKC,0.00,VWS V14.01,2013-02-18 19:05:00,
2013-02-18 14:10:00,64.9,43.7,30.26,SSE,156,6.0,13.0,46,0.00,,SKC,0.00,VWS V14.01,2013-02-18 19:10:00,
2013-02-18 14:15:00,65.1,42.7,30.27,SSE,164,3.0,12.0,44,0.00,,SKC,0.00,VWS V14.01,2013-02-18 19:15:00,
2013-02-18 14:20:00,65.2,43.3,30.26,East,98,7.0,10.0,45,0.00,,SKC,0.00,VWS V14.01,2013-02-18 19:20:00,
2013-02-18 14:25:00,65.9,42.8,30.26,SE,136,16.0,16.0,43,0.00,,SKC,0.00,VWS V14.01,2013-02-18 19:25:00,
2013-02-18 14:30:00,65.5,42.4,30.26,South,174,7.0,16.0,43,0.00,,SKC,0.00,VWS V14.01,2013-02-18 19:30:00,
2013-02-18 14:35:00,65.9,42.8,30.26,East,85,7.0,14.0,43,0.00,,SKC,0.00,VWS V14.01,2013-02-18 19:35:00,
2013-02-18 14:40:00,65.4,43.5,30.25,ESE,121,5.0,11.0,45,0.00,,SKC,0.00,VWS V14.01,2013-02-18 19:40:00,
2013-02-18 14:45:00,65.6,43.7,30.25,ESE,115,10.0,15.0,45,0.00,,SKC,0.00,VWS V14.01,2013-02-18 19:45:00,
2013-02-18 14:50:00,66.1,43.6,30.25,East,80,6.0,14.0,44,0.00,,SKC,0.00,VWS V14.01,2013-02-18 19:50:00,
2013-02-18 14:55:00,66.1,43.6,30.25,ESE,105,5.0,11.0,44,0.00,,SKC,0.00,VWS V14.01,2013-02-18 19:55:00,
2013-02-18 15:00:00,65.8,43.9,30.25,SE,135,5.0,10.0,45,0.00,,SKC,0.00,VWS V14.01,2013-02-18 20:00:00,
2013-02-18 15:05:00,66.3,43.2,30.25,East,98,7.0,14.0,43,0.00,,SKC,0.00,VWS V14.01,2013-02-18 20:05:00,
2013-02-18 15:10:00,65.7,43.8,30.25,East,96,8.0,14.0,45,0.00,,SKC,0.00,VWS V14.01,2013-02-18 20:10:00,
2013-02-18 15:15:00,66.0,44.1,30.25,SE,132,11.0,12.0,45,0.00,,SKC,0.00,VWS V14.01,2013-02-18 20:15:00,
2013-02-18 15:20:00,66.3,43.8,30.25,ESE,123,3.0,14.0,44,0.00,,SKC,0.00,VWS V14.01,2013-02-18 20:20:00,
2013-02-18 15:25:00,67.1,43.3,30.24,ESE,120,5.0,14.0,42,0.00,,SKC,0.00,VWS V14.01,2013-02-18 20:25:00,
2013-02-18 15:30:00,67.6,43.1,30.24,East,92,9.0,14.0,41,0.00,,SKC,0.00,VWS V14.01,2013-02-18 20:30:00,
2013-02-18 15:35:00,67.0,43.2,30.24,East,101,3.0,13.0,42,0.00,,SKC,0.00,VWS V14.01,2013-02-18 20:35:00,
2013-02-18 15:40:00,66.9,44.3,30.24,ENE,69,11.0,14.0,44,0.00,,SKC,0.00,VWS V14.01,2013-02-18 20:40:00,
2013-02-18 15:45:00,66.3,44.9,30.24,East,87,14.0,16.0,46,0.00,,SKC,0.00,VWS V14.01,2013-02-18 20:45:00,
2013-02-18 15:50:00,66.4,45.6,30.25,ENE,67,5.0,11.0,47,0.00,,SKC,0.00,VWS V14.01,2013-02-18 20:50:00,
2013-02-18 15:55:00,67.0,44.4,30.24,SSE,157,6.0,9.0,44,0.00,,SKC,0.00,VWS V14.01,2013-02-18 20:55:00,
2013-02-18 16:00:00,67.0,44.4,30.25,ESE,115,3.0,11.0,44,0.00,,SKC,0.00,VWS V14.01,2013-02-18 21:00:00,
2013-02-18 16:05:00,66.8,44.8,30.25,SE,142,5.0,14.0,45,0.00,,SKC,0.00,VWS V14.01,2013-02-18 21:05:00,
2013-02-18 16:10:00,66.5,44.5,30.25,SE,138,5.0,12.0,45,0.00,,SKC,0.00,VWS V14.01,2013-02-18 21:10:00,
2013-02-18 16:15:00,66.6,44.6,30.24,ENE,74,7.0,12.0,45,0.00,,SKC,0.00,VWS V14.01,2013-02-18 21:15:00,
2013-02-18 16:20:00,66.4,44.4,30.24,ESE,103,3.0,15.0,45,0.00,,SKC,0.00,VWS V14.01,2013-02-18 21:20:00,
2013-02-18 16:25:00,66.7,45.3,30.24,SSE,148,6.0,13.0,46,0.00,,SKC,0.00,VWS V14.01,2013-02-18 21:25:00,
2013-02-18 16:30:00,66.6,45.2,30.24,SE,137,5.0,10.0,46,0.00,,SKC,0.00,VWS V14.01,2013-02-18 21:30:00,
2013-02-18 16:35:00,66.3,45.5,30.24,SE,130,6.0,13.0,47,0.00,,SKC,0.00,VWS V14.01,2013-02-18 21:35:00,
2013-02-18 16:40:00,66.0,45.8,30.25,SE,138,8.0,14.0,48,0.00,,SKC,0.00,VWS V14.01,2013-02-18 21:40:00,
2013-02-18 16:45:00,65.9,45.7,30.24,SE,125,10.0,14.0,48,0.00,,SKC,0.00,VWS V14.01,2013-02-18 21:45:00,
2013-02-18 16:50:00,65.7,45.5,30.24,SE,130,8.0,13.0,48,0.00,,SKC,0.00,VWS V14.01,2013-02-18 21:50:00,
2013-02-18 16:55:00,65.8,45.6,30.25,ESE,118,9.0,12.0,48,0.00,,SKC,0.00,VWS V14.01,2013-02-18 21:55:00,
2013-02-18 17:00:00,66.1,46.4,30.25,ESE,115,7.0,11.0,49,0.00,,SKC,0.00,VWS V14.01,2013-02-18 22:00:00,
2013-02-18 17:05:00,65.7,46.0,30.25,East,86,9.0,13.0,49,0.00,,SKC,0.00,VWS V14.01,2013-02-18 22:05:00,
2013-02-18 17:10:00,65.5,45.8,30.25,East,96,6.0,13.0,49,0.00,,SKC,0.00,VWS V14.01,2013-02-18 22:10:00,
2013-02-18 17:15:00,65.3,45.1,30.25,ESE,105,7.0,14.0,48,0.00,,SKC,0.00,VWS V14.01,2013-02-18 22:15:00,
2013-02-18 17:20:00,65.1,45.5,30.25,East,98,8.0,12.0,49,0.00,,SKC,0.00,VWS V14.01,2013-02-18 22:20:00,
2013-02-18 17:25:00,64.8,45.7,30.25,East,89,6.0,14.0,50,0.00,,SKC,0.00,VWS V14.01,2013-02-18 22:25:00,
2013-02-18 17:30:00,64.7,46.2,30.25,ESE,116,3.0,10.0,51,0.00,,SKC,0.00,VWS V14.01,2013-02-18 22:30:00,
2013-02-18 17:35:00,64.6,46.6,30.25,ESE,108,4.0,9.0,52,0.00,,SKC,0.00,VWS V14.01,2013-02-18 22:35:00,
2013-02-18 17:40:00,64.5,46.0,30.25,ESE,103,3.0,11.0,51,0.00,,SKC,0.00,VWS V14.01,2013-02-18 22:40:00,
2013-02-18 17:45:00,64.4,45.9,30.25,ESE,105,5.0,11.0,51,0.00,,SKC,0.00,VWS V14.01,2013-02-18 22:45:00,
2013-02-18 17:50:00,64.3,45.8,30.25,ESE,111,9.0,12.0,51,0.00,,SKC,0.00,VWS V14.01,2013-02-18 22:50:00,
2013-02-18 17:55:00,64.2,46.7,30.25,SE,144,2.0,11.0,53,0.00,,SKC,0.00,VWS V14.01,2013-02-18 22:55:00,
2013-02-18 18:00:00,64.0,46.5,30.24,ESE,115,2.0,11.0,53,0.00,,SKC,0.00,VWS V14.01,2013-02-18 23:00:00,
2013-02-18 18:05:00,63.7,47.2,30.24,East,100,8.0,13.0,55,0.00,,SKC,0.00,VWS V14.01,2013-02-18 23:05:00,
2013-02-18 18:10:00,63.4,47.0,30.25,East,93,6.0,11.0,55,0.00,,SKC,0.00,VWS V14.01,2013-02-18 23:10:00,
2013-02-18 18:15:00,63.1,47.2,30.25,ESE,108,10.0,14.0,56,0.00,,SKC,0.00,VWS V14.01,2013-02-18 23:15:00,
2013-02-18 18:20:00,63.0,47.5,30.25,East,97,5.0,9.0,57,0.00,,SKC,0.00,VWS V14.01,2013-02-18 23:20:00,
2013-02-18 18:25:00,62.8,47.4,30.25,ENE,75,5.0,10.0,57,0.00,,SKC,0.00,VWS V14.01,2013-02-18 23:25:00,
2013-02-18 18:30:00,62.5,47.5,30.25,East,96,3.0,9.0,58,0.00,,SKC,0.00,VWS V14.01,2013-02-18 23:30:00,
2013-02-18 18:35:00,62.3,47.8,30.25,East,97,3.0,10.0,59,0.00,,SKC,0.00,VWS V14.01,2013-02-18 23:35:00,
2013-02-18 18:40:00,62.1,48.1,30.25,East,86,5.0,8.0,60,0.00,,SKC,0.00,VWS V14.01,2013-02-18 23:40:00,
2013-02-18 18:45:00,61.8,48.2,30.25,ENE,78,5.0,8.0,61,0.00,,SKC,0.00,VWS V14.01,2013-02-18 23:45:00,
2013-02-18 18:50:00,61.6,48.5,30.25,ENE,71,5.0,6.0,62,0.00,,SKC,0.00,VWS V14.01,2013-02-18 23:50:00,
2013-02-18 18:55:00,61.4,48.3,30.25,ENE,67,5.0,10.0,62,0.00,,SKC,0.00,VWS V14.01,2013-02-18 23:55:00,
2013-02-18 19:00:00,61.2,48.1,30.25,ENE,71,5.0,8.0,62,0.00,,SKC,0.00,VWS V14.01,2013-02-19 00:00:00,
2013-02-18 19:05:00,61.1,48.4,30.25,ESE,103,5.0,9.0,63,0.00,,SKC,0.00,VWS V14.01,2013-02-19 00:05:00,
2013-02-18 19:10:00,60.9,48.7,30.25,East,83,7.0,9.0,64,0.00,,SKC,0.00,VWS V14.01,2013-02-19 00:10:00,
2013-02-18 19:15:00,60.9,48.7,30.25,East,101,8.0,11.0,64,0.00,,SKC,0.00,VWS V14.01,2013-02-19 00:15:00,
2013-02-18 19:20:00,60.8,48.6,30.24,East,88,6.0,9.0,64,0.00,,SKC,0.00,VWS V14.01,2013-02-19 00:20:00,
2013-02-18 19:25:00,60.7,48.5,30.25,East,97,7.0,9.0,64,0.00,,SKC,0.00,VWS V14.01,2013-02-19 00:25:00,
2013-02-18 19:30:00,60.5,48.3,30.24,East,80,8.0,11.0,64,0.00,,SKC,0.00,VWS V14.01,2013-02-19 00:30:00,
2013-02-18 19:35:00,60.5,48.3,30.24,East,82,10.0,10.0,64,0.00,,SKC,0.00,VWS V14.01,2013-02-19 00:35:00,
2013-02-18 19:40:00,60.5,48.3,30.24,ESE,103,9.0,11.0,64,0.00,,SKC,0.00,VWS V14.01,2013-02-19 00:40:00,
2013-02-18 19:45:00,60.3,48.5,30.24,East,94,3.0,12.0,65,0.00,,SKC,0.00,VWS V14.01,2013-02-19 00:45:00,
2013-02-18 19:50:00,60.1,48.3,30.24,ESE,109,4.0,10.0,65,0.00,,SKC,0.00,VWS V14.01,2013-02-19 00:50:00,
2013-02-18 19:54:00,59.9,48.1,30.24,East,98,5.0,10.0,65,0.00,,SKC,0.00,VWS V14.01,2013-02-19 00:54:00,
2013-02-18 20:00:00,59.8,48.4,30.24,East,94,9.0,10.0,66,0.00,,SKC,0.00,VWS V14.01,2013-02-19 01:00:00,
2013-02-18 20:05:00,59.6,48.2,30.24,ESE,110,8.0,11.0,66,0.00,,SKC,0.00,VWS V14.01,2013-02-19 01:05:00,
2013-02-18 20:10:00,59.5,48.2,30.24,East,90,6.0,10.0,66,0.00,,SKC,0.00,VWS V14.01,2013-02-19 01:10:00,
2013-02-18 20:15:00,59.3,48.4,30.24,East,90,7.0,11.0,67,0.00,,SKC,0.00,VWS V14.01,2013-02-19 01:15:00,
2013-02-18 20:20:00,59.1,48.6,30.25,ESE,112,7.0,10.0,68,0.00,,SKC,0.00,VWS V14.01,2013-02-19 01:20:00,
2013-02-18 20:25:00,58.9,48.4,30.25,East,97,8.0,9.0,68,0.00,,SKC,0.00,VWS V14.01,2013-02-19 01:25:00,
2013-02-18 20:30:00,58.8,48.7,30.25,ESE,106,5.0,9.0,69,0.00,,SKC,0.00,VWS V14.01,2013-02-19 01:30:00,
2013-02-18 20:35:00,58.6,48.5,30.25,East,91,2.0,9.0,69,0.00,,SKC,0.00,VWS V14.01,2013-02-19 01:35:00,
2013-02-18 20:39:00,58.5,48.4,30.25,East,86,3.0,8.0,69,0.00,,SKC,0.00,VWS V14.01,2013-02-19 01:39:00,
2013-02-18 20:45:00,58.2,48.5,30.25,East,94,6.0,7.0,70,0.00,,SKC,0.00,VWS V14.01,2013-02-19 01:45:00,
2013-02-18 20:50:00,58.1,48.4,30.25,East,101,5.0,8.0,70,0.00,,SKC,0.00,VWS V14.01,2013-02-19 01:50:00,
2013-02-18 20:55:00,57.9,48.2,30.25,ESE,105,1.0,4.0,70,0.00,,SKC,0.00,VWS V14.01,2013-02-19 01:55:00,
2013-02-18 21:00:00,57.7,48.4,30.26,ESE,102,3.0,5.0,71,0.00,,SKC,0.00,VWS V14.01,2013-02-19 02:00:00,
2013-02-18 21:04:00,57.6,48.3,30.25,East,95,0.0,6.0,71,0.00,,SKC,0.00,VWS V14.01,2013-02-19 02:04:00,
2013-02-18 21:09:00,57.4,48.1,30.25,ESE,107,1.0,7.0,71,0.00,,SKC,0.00,VWS V14.01,2013-02-19 02:09:00,
2013-02-18 21:14:00,57.3,48.4,30.25,ESE,108,3.0,7.0,72,0.00,,SKC,0.00,VWS V14.01,2013-02-19 02:14:00,
2013-02-18 21:19:00,57.2,48.3,30.25,ESE,107,3.0,5.0,72,0.00,,SKC,0.00,VWS V14.01,2013-02-19 02:19:00,
2013-02-18 21:24:00,57.0,48.4,30.25,East,101,5.0,6.0,73,0.00,,SKC,0.00,VWS V14.01,2013-02-19 02:24:00,
2013-02-18 21:29:00,56.9,48.7,30.25,ESE,105,3.0,5.0,74,0.00,,SKC,0.00,VWS V14.01,2013-02-19 02:29:00,
2013-02-18 21:34:00,56.8,48.6,30.25,East,89,6.0,8.0,74,0.00,,SKC,0.00,VWS V14.01,2013-02-19 02:34:00,
2013-02-18 21:39:00,56.6,48.8,30.25,East,93,5.0,6.0,75,0.00,,SKC,0.00,VWS V14.01,2013-02-19 02:39:00,
2013-02-18 21:44:00,56.5,48.7,30.25,East,90,2.0,6.0,75,0.00,,SKC,0.00,VWS V14.01,2013-02-19 02:44:00,
2013-02-18 21:49:00,56.5,49.0,30.25,East,91,5.0,6.0,76,0.00,,SKC,0.00,VWS V14.01,2013-02-19 02:49:00,
2013-02-18 21:54:00,56.4,48.9,30.25,East,92,3.0,6.0,76,0.00,,SKC,0.00,VWS V14.01,2013-02-19 02:54:00,
2013-02-18 21:59:00,56.4,49.3,30.25,East,90,6.0,6.0,77,0.00,,SKC,0.00,VWS V14.01,2013-02-19 02:59:00,
2013-02-18 22:04:00,56.3,48.8,30.25,East,82,6.0,7.0,76,0.00,,SKC,0.00,VWS V14.01,2013-02-19 03:04:00,
2013-02-18 22:09:00,56.2,48.4,30.25,East,88,3.0,7.0,75,0.00,,SKC,0.00,VWS V14.01,2013-02-19 03:09:00,
2013-02-18 22:14:00,56.2,48.4,30.25,East,82,6.0,7.0,75,0.00,,SKC,0.00,VWS V14.01,2013-02-19 03:14:00,
2013-02-18 22:19:00,56.3,48.8,30.24,East,88,3.0,8.0,76,0.00,,SKC,0.00,VWS V14.01,2013-02-19 03:19:00,
2013-02-18 22:24:00,56.2,48.8,30.24,East,90,5.0,6.0,76,0.00,,SKC,0.00,VWS V14.01,2013-02-19 03:24:00,
2013-02-18 22:29:00,56.1,49.0,30.24,East,98,3.0,7.0,77,0.00,,SKC,0.00,VWS V14.01,2013-02-19 03:29:00,
2013-02-18 22:35:00,56.1,49.0,30.23,East,89,3.0,8.0,77,0.00,,SKC,0.00,VWS V14.01,2013-02-19 03:35:00,
2013-02-18 22:40:00,56.0,48.9,30.23,ESE,110,3.0,7.0,77,0.00,,SKC,0.00,VWS V14.01,2013-02-19 03:40:00,
2013-02-18 22:45:00,55.7,48.6,30.23,ESE,105,4.0,7.0,77,0.00,,SKC,0.00,VWS V14.01,2013-02-19 03:45:00,
2013-02-18 22:50:00,55.4,48.3,30.23,ESE,107,2.0,5.0,77,0.00,,SKC,0.00,VWS V14.01,2013-02-19 03:50:00,
2013-02-18 22:55:00,55.2,48.1,30.23,ESE,107,3.0,4.0,77,0.00,,SKC,0.00,VWS V14.01,2013-02-19 03:55:00,
2013-02-18 23:00:00,55.1,48.4,30.24,ESE,105,3.0,4.0,78,0.00,,SKC,0.00,VWS V14.01,2013-02-19 04:00:00,
2013-02-18 23:05:00,55.0,48.3,30.23,ESE,105,4.0,4.0,78,0.00,,SKC,0.00,VWS V14.01,2013-02-19 04:05:00,
2013-02-18 23:10:00,55.0,48.3,30.23,ESE,110,3.0,5.0,78,0.00,,SKC,0.00,VWS V14.01,2013-02-19 04:10:00,
2013-02-18 23:15:00,54.9,48.5,30.23,ESE,110,0.0,5.0,79,0.00,,SKC,0.00,VWS V14.01,2013-02-19 04:15:00,
2013-02-18 23:20:00,54.9,48.5,30.22,ESE,117,3.0,5.0,79,0.00,,SKC,0.00,VWS V14.01,2013-02-19 04:20:00,
2013-02-18 23:25:00,54.9,48.5,30.22,ESE,117,2.0,7.0,79,0.00,,SKC,0.00,VWS V14.01,2013-02-19 04:25:00,
2013-02-18 23:30:00,54.9,48.5,30.22,East,98,2.0,6.0,79,0.00,,SKC,0.00,VWS V14.01,2013-02-19 04:30:00,
2013-02-18 23:35:00,54.7,48.3,30.21,ESE,105,3.0,7.0,79,0.00,,SKC,0.00,VWS V14.01,2013-02-19 04:35:00,
2013-02-18 23:40:00,54.7,48.3,30.21,ESE,107,3.0,7.0,79,0.00,,SKC,0.00,VWS V14.01,2013-02-19 04:40:00,
2013-02-18 23:45:00,54.7,48.7,30.21,ESE,107,4.0,7.0,80,0.00,,SKC,0.00,VWS V14.01,2013-02-19 04:45:00,
2013-02-18 23:50:00,54.7,48.7,30.21,ESE,108,3.0,8.0,80,0.00,,SKC,0.00,VWS V14.01,2013-02-19 04:50:00,
2013-02-18 23:55:00,54.6,48.2,30.21,ESE,109,3.0,5.0,79,0.00,,SKC,0.00,VWS V14.01,2013-02-19 04:55:00,